(48) Doris
ephemeris date magn radius delta ra dec elong phase
Opposition1 Jun 202611.83.319 AU2.313 AU16h45m-13°31'171.2°2.7°
Today27 Jul 202612.73.318 AU2.679 AU16h17m-13°19'121.0°15.2°
(48) Doris - 2026-07-27
astro.vanbuitenen.nl


 
-1 year
-1 month
-1 day
Now
+1 day
+1 month
+1 year

The interactive orbit chart above shows the body's path through the solar system and its position at the given date. Green and blue lines are shown perpendicular to the ecliptic plane: Green if the path is above the ecliptic plane, blue if it is below. (Left-click and drag to rotate the view; Right-click and drag to move the view; Use scroll wheel to zoom in our out.)

The orbital elements of Doris are:

            e (Eccentricity)                : 0.0660520
            a (Semimajor axis)              : 3.1135589
            i (Inclination)                 : 6.55721
            Ω (Longitude of ascending node) : 183.42116
            ω (Argument of perihelion)      : 251.45061
            M (Mean anomaly)                : 177.53892
            Epoch                           : 2026 Jun 09

            L (Longitude of perihelion)     : 254.75806
            B (Latitude of perihelion)      : -6.21518
            P (Orbital period in years)     : 5.49            
        

The light curve chart below shows the estimated development of the minor planet's magnitude.


The all-sky chart below shows the path of the minor planet over the same period as the light curve. The current position is marked yellow.





The following chart shows the path of the minor planet in the next few days. The field of view is optimized for (~10x50) binoculars and finderscopes.




Ephemerides:
Date       Time       RA (2000)    DEC (2000)    delta   radius  elong  phase   PA    magn
2026-07-27 00:00 UT   16 17 47.4   -13 19 44     2.679    3.318  121.0   15.2   105   12.7 
2026-07-27 11:30 UT   16 17 47.1   -13 20 37     2.685    3.318  120.5   15.3   105   12.7 
2026-07-28 00:00 UT   16 17 47.1   -13 21 35     2.692    3.318  120.0   15.4   105   12.7 
2026-07-29 00:00 UT   16 17 48.0   -13 23 30     2.704    3.318  119.1   15.5   104   12.7 
2026-07-30 00:00 UT   16 17 50.1   -13 25 28     2.716    3.318  118.2   15.6   104   12.7 
2026-07-31 00:00 UT   16 17 53.5   -13 27 30     2.728    3.318  117.2   15.8   104   12.7 
2026-08-01 00:00 UT   16 17 58.0   -13 29 35     2.741    3.318  116.3   15.9   104   12.7 
2026-08-02 00:00 UT   16 18 03.8   -13 31 43     2.753    3.318  115.4   16.0   104   12.8 
2026-08-03 00:00 UT   16 18 10.7   -13 33 55     2.766    3.318  114.5   16.2   103   12.8 
2026-08-04 00:00 UT   16 18 18.9   -13 36 10     2.779    3.318  113.6   16.3   103   12.8 
2026-08-05 00:00 UT   16 18 28.2   -13 38 28     2.792    3.318  112.7   16.4   103   12.8 
2026-08-06 00:00 UT   16 18 38.7   -13 40 49     2.804    3.317  111.8   16.5   103   12.8 
2026-08-07 00:00 UT   16 18 50.3   -13 43 12     2.818    3.317  110.9   16.6   103   12.8 
2026-08-08 00:00 UT   16 19 03.2   -13 45 39     2.831    3.317  110.0   16.7   103   12.8 
2026-08-09 00:00 UT   16 19 17.2   -13 48 09     2.844    3.317  109.1   16.8   102   12.9 
2026-08-10 00:00 UT   16 19 32.3   -13 50 41     2.857    3.317  108.2   16.9   102   12.9 
2026-08-11 00:00 UT   16 19 48.6   -13 53 16     2.870    3.317  107.4   17.0   102   12.9 
2026-08-12 00:00 UT   16 20 06.1   -13 55 53     2.884    3.317  106.5   17.0   102   12.9 
2026-08-13 00:00 UT   16 20 24.7   -13 58 33     2.897    3.317  105.6   17.1   102   12.9 
2026-08-14 00:00 UT   16 20 44.4   -14 01 15     2.911    3.317  104.8   17.2   102   12.9 
2026-08-15 00:00 UT   16 21 05.2   -14 03 60     2.924    3.317  103.9   17.2   101   12.9 
2026-08-16 00:00 UT   16 21 27.2   -14 06 46     2.938    3.317  103.0   17.3   101   12.9 
2026-08-17 00:00 UT   16 21 50.2   -14 09 35     2.952    3.317  102.2   17.4   101   13.0 
2026-08-18 00:00 UT   16 22 14.3   -14 12 26     2.965    3.316  101.3   17.4   101   13.0 
2026-08-19 00:00 UT   16 22 39.5   -14 15 18     2.979    3.316  100.5   17.5   101   13.0 
2026-08-20 00:00 UT   16 23 05.8   -14 18 13     2.993    3.316   99.6   17.5   101   13.0 
2026-08-21 00:00 UT   16 23 33.1   -14 21 09     3.007    3.316   98.8   17.5   101   13.0 
2026-08-22 00:00 UT   16 24 01.5   -14 24 06     3.021    3.316   98.0   17.6   100   13.0 
2026-08-23 00:00 UT   16 24 30.9   -14 27 06     3.035    3.316   97.1   17.6   100   13.0 
2026-08-24 00:00 UT   16 25 01.4   -14 30 06     3.048    3.316   96.3   17.6   100   13.0 
2026-08-25 00:00 UT   16 25 32.8   -14 33 09     3.062    3.316   95.5   17.7   100   13.0 
2026-08-26 00:00 UT   16 26 05.2   -14 36 12     3.076    3.316   94.7   17.7   100   13.1 


    Terminology:
            
    delta:  distance between minor planet and earth in AU
    radius: distance between minor planet and sun in AU
    magn:   magnitude (brightness) estimate    
    ra:     right ascension in hours (24h = 360deg)
    dec:    declination in degrees
    elong:  elongation in degrees (angle sun-earth-minor planet)    
    phase:  phase angle in degrees (angle sun-minor planet-earth)        
    AU:     Astronomical Unit (mean distance between earth and sun: 149597870.7 km
    

Orbital elements provided by the MPC (Minor Planet Center).
Calculations by a modified version of AAPlus, a C# implementation of the AA+ project by PJ Naughter from the algorithms presented in the book "Astronomical Algorithms" by Jean Meeus.
NGC2000 dso catalog and star labels from VizieR as provided by the Strasbourg astronomical Data Center.
Tycho2 catalog from the ESO archive.